Location: Archamps
(46.1365°N, 6.1329°E)
Time: 06:00:55
(UTC+00:00)

Cosmos 2360 Rocket - Pass Details

Date: 28 January 2023
Orbit: 832 x 846 km, 71.0° (Epoch: 21 March)

Event Time Altitude Azimuth Distance (km) Brightness Sun altitude
Rises 19:37:36 0° 204° (SSW) 3,370 5.5 -31.7°
Reaches altitude 10° 19:40:01 10° 204° (SSW) 2,442 4.7 -32.2°
Enters shadow 19:41:49 22° 204° (SSW) 1,772 4.0 -32.5°
